Weather History for Pasco, WA

Change the Weather History Date:

Wednesday, November 20, 2013

  Actual Average Record
Temperature  
Mean Temperature 28 °F 40 °F  
Max Temperature 41 °F 48 °F 62 °F (1998)
Min Temperature 14 °F 32 °F 14 °F (2013)
Degree Days  
Heating Degree Days 37 25  
Month to date heating degree days 411 438  
Since 1 July heating degree days 964 956  
Cooling Degree Days 0 0  
Month to date cooling degree days 0 0  
Year to date cooling degree days 995 710  
Moisture  
Dew Point 13 °F    
Average Humidity 49    
Maximum Humidity 74    
Minimum Humidity 23    
Precipitation  
Precipitation 0.00 in 0.04 in 0.85 in (1966)
Month to date precipitation 0.40 0.68  
Year to date precipitation 4.75 7.21  
Snow  
Snow 0.00 in - - ()
Snow Depth 0.00 in    
Sea Level Pressure  
Sea Level Pressure 30.30 in    
Wind  
Wind Speed 8 mph (NNW)    
Max Wind Speed 20 mph    
Max Gust Speed 23 mph    
Visibility 10 miles    
Events      
T = Trace of Precipitation, MM = Missing Value Source: NWS Daily Summary

Daily Weather History Graph

Daily Weather History Graph

Search for Another Location

Airport:

Trip Planner

Search our weather history database for the weather conditions in past years. The results will help you decide how hot, cold, wet, or windy it might be!

Date:

Astronomy

Nov. 20, 2013 Rise Set
Actual Time 7:05 AM PST 4:18 PM PST
Civil Twilight 6:31 AM PST 4:51 PM PST
Nautical Twilight 5:55 AM PST 5:28 PM PST
Astronomical Twilight 5:19 AM PST 6:04 PM PST
Moon 7:06 PM PST (11/20) 9:34 AM PST (11/20)
Length of Visible Light 10h 20m
Length of Day
9h 13m
Waning Gibbous, 91% of the Moon is Illuminated
Nov 20
Waning Gibbous
Nov 25
Last Quarter
Dec 2
New
Dec 9
First Quarter
Dec 17
Full

Hourly Weather History & Observations

Time (PST) Temp. Windchill Dew Point Humidity Pressure Visibility Wind Dir Wind Speed Gust Speed Precip Events Conditions
12:53 AM 37.0 °F 31.0 °F 28.9 °F 73% 29.94 in 10.0 mi NW 8.1 mph - N/A   Clear
1:53 AM 39.0 °F 36.8 °F 28.9 °F 67% 29.99 in 10.0 mi NNW 3.5 mph - N/A   Overcast
2:53 AM 37.9 °F 32.1 °F 25.0 °F 60% 30.04 in 10.0 mi NW 8.1 mph - N/A   Mostly Cloudy
3:53 AM 34.0 °F 27.2 °F 23.0 °F 64% 30.08 in 10.0 mi WNW 8.1 mph - N/A   Clear
4:53 AM 33.1 °F 25.5 °F 21.9 °F 64% 30.14 in 10.0 mi NW 9.2 mph - N/A   Mostly Cloudy
5:53 AM 32.0 °F 23.6 °F 18.0 °F 56% 30.17 in 10.0 mi NW 10.4 mph - N/A   Clear
6:53 AM 28.9 °F 19.8 °F 14.0 °F 54% 30.23 in 10.0 mi NNW 10.4 mph - N/A   Clear
7:53 AM 30.0 °F 22.4 °F 12.0 °F 47% 30.27 in 10.0 mi NNW 8.1 mph - N/A   Clear
8:53 AM 34.0 °F 28.8 °F 12.0 °F 40% 30.31 in 10.0 mi NW 5.8 mph - N/A   Clear
9:53 AM 36.0 °F 27.1 °F 3.9 °F 26% 30.33 in 10.0 mi North 13.8 mph - N/A   Clear
10:53 AM 37.0 °F 27.7 °F 3.9 °F 25% 30.34 in 10.0 mi North 16.1 mph - N/A   Clear
11:53 AM 39.0 °F 31.0 °F 5.0 °F 24% 30.33 in 10.0 mi North 13.8 mph - N/A   Clear
12:53 PM 41.0 °F 34.3 °F 6.1 °F 24% 30.33 in 10.0 mi North 11.5 mph - N/A   Clear
1:53 PM 39.9 °F 31.8 °F 6.1 °F 25% 30.33 in 10.0 mi North 15.0 mph - N/A   Clear
2:53 PM 39.9 °F 33.4 °F 7.0 °F 26% 30.34 in 10.0 mi North 10.4 mph - N/A   Clear
3:53 PM 33.1 °F 26.1 °F 12.9 °F 43% 30.36 in 10.0 mi NNW 8.1 mph - N/A   Clear
4:53 PM 25.0 °F 17.1 °F 10.9 °F 55% 30.38 in 10.0 mi NW 6.9 mph - N/A   Clear
5:53 PM 27.0 °F - 12.0 °F 53% 30.40 in 10.0 mi Calm Calm - N/A   Clear
6:53 PM 21.0 °F 11.4 °F 10.0 °F 63% 30.42 in 10.0 mi North 8.1 mph - N/A   Clear
7:53 PM 19.9 °F 14.9 °F 10.9 °F 68% 30.45 in 10.0 mi NNW 3.5 mph - N/A   Clear
8:53 PM 18.0 °F 12.7 °F 10.0 °F 71% 30.47 in 10.0 mi WNW 3.5 mph - N/A   Clear
9:53 PM 16.0 °F 6.3 °F 9.0 °F 74% 30.48 in 10.0 mi NW 6.9 mph - N/A   Clear
10:53 PM 18.0 °F 9.8 °F 10.9 °F 74% 30.50 in 10.0 mi NNW 5.8 mph - N/A   Clear
11:53 PM 16.0 °F - 8.1 °F 71% 30.52 in 10.0 mi Calm Calm - N/A   Clear